Regional Weather Roundup
Issued by NWS Charleston, SC

Current Version | Previous Version | Text Only | Print | Product List | Glossary Off
Versions: 1 2 3 4 5 6 7 8 9 10 11 12 13 14 15 16 17 18 19 20 21 22 23 24 25 26 27 28 29 30 31 32 33 34 35 36 37 38 39 40 41 42 43 44 45 46 47 48 49 50

000
ASUS42 KCHS 240512
RWRCHS

REGIONAL WEATHER ROUNDUP
NATIONAL WEATHER SERVICE CHARLESTON SC
100 AM EDT SAT JUN 24 2017

NOTE: "FAIR" INDICATES FEW OR NO CLOUDS BELOW 12,000 FEET WITH NO
SIGNIFICANT WEATHER AND/OR OBSTRUCTIONS TO VISIBILITY.

NOT ALL STATIONS ARE QUALITY CONTROLLED. USE DATA WITH CAUTION...
ESPECIALLY DEWPOINT OBSERVATIONS.

SCZ027-030-031-034>040-042>050-240600-
...SOUTHEAST SOUTH CAROLINA...

CITY           SKY/WX    TMP DP  RH WIND       PRES   REMARKS
N CHARLESTON   PTCLDY    80  73  79 S15       30.00F
WATERFRONT PRK   N/A     81  77  88 SW10G18   29.99S
JOHNS ISLAND   CLOUDY    81  75  83 S12G20    30.02S
PINOPOLIS        N/A     81  75  83 S6        29.93S
MONCKS CORNER  FAIR      79  73  83 S13       29.99F
SUMMERVILLE    FAIR      79  73  83 S5        30.00F
BEAUFORT MCAS  PTCLDY    81  76  84 S6        30.01F
BEAUFORT ARPT  FAIR      81  73  78 SW9       30.02S
HILTON HEAD IS CLEAR     82  75  78 S13G23    30.03S
WALTERBORO     CLOUDY    77  73  88 S8        30.01S
ALLENDALE      FAIR      79  75  89 S7        29.97F

...SOUTHERN MIDLANDS AND PEE DEE...

CITY           SKY/WX    TMP DP  RH WIND       PRES   REMARKS
GEORGETOWN     FAIR      79  77  94 SW12G17   30.01S
KINGSTREE      FAIR      77  72  83 S6        29.97F
ORANGEBURG     CLOUDY    78  74  87 S12       29.96F
BARNWELL       FAIR      81  77  89 S7        29.97F
AIKEN          FAIR      79  72  78 S12       29.99S
MANNING        FAIR      79  77  94 SW17G23   29.97F
COLUMBIA       CLEAR     82  73  74 S10G20    29.92F
SUMTER         PTCLDY    78  74  86 S16       29.92F
FLORENCE       PTCLDY    78  74  87 S14       29.94F
MYRTLE BEACH   PTCLDY    80  75  84 SW13G22   29.99F
N MYRTLE BEACH CLOUDY    80  76  87 SW17      29.98S

$$

GAZ063-065-086>088-099>101-113>116-118-119-134>141-150-240600-
...SOUTHEAST GEORGIA...

CITY           SKY/WX    TMP DP  RH WIND       PRES   REMARKS
SAVANNAH ARPT  CLEAR     80  73  79 S8        30.03S
HUNTER AAF     CLEAR     80  74  82 SW8       30.00S
FORT STEWART   CLEAR     78  72  82 S7        30.00F
STATESBORO     CLEAR     80  80 100 S7        30.00F
SYLVANIA       PTCLDY    79  77  94 S5        30.01S
CLAXTON        FAIR      77  74  91 CALM      30.01F

...CSRA...CENTRAL AND FAR SOUTHEAST GEORGIA...

CITY           SKY/WX    TMP DP  RH WIND       PRES   REMARKS
THOMSON        CLEAR     80  73  79 W8        30.01S
AUGUSTA-BUSH   CLEAR     83  74  74 S9        29.94F
AUGUSTA-DANIEL CLEAR     83  72  69 SW10G18   29.96F
SWAINSBORO     FAIR      81  73  78 SW6       30.00F
VIDALIA        CLEAR     81  75  83 SW8       30.00F
EASTMAN        FAIR      80  68  67 SW7       30.02F
HAZLEHURST     FAIR      81  77  88 SW6       30.00F
ALMA           CLEAR     79  73  82 SW3       30.02F
WAYCROSS       CLEAR     81  79  95 CALM      30.03F HX  90
JESUP          FAIR      77  72  83 S3        30.03F
BAXLEY         FAIR      79  79 100 SW3       30.01F
BRUNSWICK      CLEAR     81  77  89 S8        30.05S
SAINT SIMONS   CLEAR     82  76  81 SW10      30.05R

$$

SCZ027-028-034-036>038-045-046-048>050-GAZ119-141-240600-
...LAKE AND SUPPLEMENTAL COASTAL OBSERVATIONS...

STATION/POSITION TIME  TEMP    WIND        PRES    WAVE   SWELL
                       AIR SEA DIR/SP/G            HT/PER HT/PER/DIR
                 (UTC) (F)     (DEG/KT/KT) (MB)    (FT/S) (FT/S/D)
WINYAH BAY       0345   80     210/ 14     1015.0
LAKE MURRAY      0420   81     190/ 14/ 18 1012.2
ACE BASIN NERRS  0345   81     180/  1     1017.0
FORT PULASKI     0448   81 84  210/ 11/ 15 1016.9F
SAPELO ISLAND    0400   81     190/ 13     1017.0

$$

ANZ835-935-AMZ111-154-330-350-352-354-370-450-454-472-240600-
...C-MAN AND BUOY OBSERVATIONS...

STATION/POSITION TIME  TEMP    WIND        PRES    WAVE   SWELL
                       AIR SEA DIR/SP/G            HT/PER HT/PER/DIR
                 (UTC) (F)     (DEG/KT/KT) (MB)    (FT/S) (FT/S/D)
BUOY 41004       0450   81 81  200/ 19/ 23 1016.3F   5/ 5   2/160/10
BUOY 41008       0350   81 82  180/ 19/ 23 1016.5    4/ 5   2/ 90/ 9
FOLLY BEACH CMAN 0400   82     200/ 21/ 25 1017.0R
CAPERS NEARSHORE 0408   86 83  210/ 21/ 27 1015.6R
FRIPP NEARSHORE  0408   82 83  210/ 17/ 23 1016.4R


STATION/POSITION TIME  TEMP    WIND        PRES    WAVE   SWELL
                       AIR SEA DIR/SP/G            HT/PER HT/PER/DIR
                 (UTC) (F)     (DEG/KT/KT) (MB)    (FT/S) (FT/S/D)
5E ST. MARYS GA  0430      80                N/A     4/ 5
FRYING PAN BUOY  0450   81 80  210/ 21/ 27 1016.0S   6/ 5   2/150/ 9
BUOY 41025       0450   81 80  220/ 23/ 27 1013.9F   7/ 6   2/170/10
CAPE LOOKOUT NC  0400   80     220/ 13/ 21 1014.7R
BUOY 41002       0350   81 81  190/ 14/ 17 1019.1    4/ 9   3/120/ 9
BUOY 41010       0450   82 83  170/ 12/ 16 1019.0R   5/ 9   3/120/ 9
ST AUGUSTINE FL  0500   77 79  170/  7/  7 1018.3R


$$




USA.gov is the U.S. government's official web portal to all federal, state and local government web resources and services.